sat.trackr.live / text

‹ back to catalog

STARLINK-4527

NORAD 53436 · 2022-097BA

PAYLOAD ACTIVE UNKNOWN

§ Identity

Operator
Country
US
Launch date
2022-08-10
Launch site
AFETR
Launch vehicle
Mass (kg)
RCS (m²)

Purposes: comms

External: N2YO · Heavens-Above · Gunter

§ Orbital elements

Epoch: 2026-05-25T05:34:48.935712Z

Period
95.44 min
Inclination
53.2145°
Eccentricity
0.0001133
Mean motion
15.08839624 rev/d
Perigee alt
539.0 km
Apogee alt
540.5 km
Semi-major
6,917.9 km
B*
-8.2096e-6
RAAN
120.1884°
Arg perigee
84.2521°
Mean anomaly
275.8601°
Rev number
21,034

§ Raw data

STARLINK-45271 53436U 22097BA  26145.23251083 -.00000418  00000+0 -82096-5 0  99972 53436  53.2145 120.1884 0001133  84.2521 275.8601 15.08839624210342

JSON: /api/v1/satellites/53436 · /tle

For live sub-satellite position, see the globe view (requires WebGL).

§ Visibility from observer

Set your observer location to see the next 7 days of passes ≥ 10°. The values pass through the URL so the page stays shareable.

No JS? Fill the form by hand. The geolocation button needs JavaScript.